This is the latest recevied weather packets stored in our database for station/object HB9FHL-13. If no packets are shown the sender has not sent any weather packets the latest 10 day(s).
| Time | Temp. | Humidity | Pressure | Rain* | Wind** | Luminosity | Snow |
|---|---|---|---|---|---|---|---|
| 1788063094 | 18.33° C | - | 1018.7 hPa | 0 mm | - | - | - |
| 1788062793 | 18.33° C | - | 1019.2 hPa | 0 mm | - | - | - |
| 1788062492 | 18.89° C | - | 1020.4 hPa | 0 mm | - | - | - |
| 1788062228 | 18.89° C | - | 1019.1 hPa | 0 mm | - | - | - |
| 1788062192 | 18.89° C | - | 1019.1 hPa | 0 mm | - | - | - |
| 1788062012 | 19.44° C | - | 1020.7 hPa | 0 mm | - | - | - |
| 1788061889 | 19.44° C | - | 1020.7 hPa | 0 mm | - | - | - |
| 1788061587 | 18.33° C | - | 1018.3 hPa | 0 mm | - | - | - |
| 1788061284 | 18.33° C | - | 1017.8 hPa | 0 mm | - | - | - |
| 1788060984 | 18.89° C | - | 1019.6 hPa | 0 mm | - | - | - |
| 1788060683 | 18.89° C | - | 1018.3 hPa | 0 mm | - | - | - |
| 1788060383 | 18.89° C | - | 1018.9 hPa | 0 mm | - | - | - |
| 1788060082 | 18.33° C | - | 1023 hPa | 0 mm | - | - | - |
| 1788059888 | 18.89° C | - | 1017.6 hPa | 0 mm | - | - | - |
| 1788059782 | 18.89° C | - | 1017.6 hPa | 0 mm | - | - | - |
| 1788059540 | 19.44° C | - | 1018.7 hPa | 0 mm | - | - | - |
| 1788059482 | 19.44° C | - | 1018.7 hPa | 0 mm | - | - | - |
| 1788059181 | 19.44° C | - | 1020.4 hPa | 0 mm | - | - | - |
| 1788058880 | 19.44° C | - | 1021.8 hPa | 0 mm | - | - | - |
| 1788058576 | 18.89° C | - | 1019.3 hPa | 0 mm | - | - | - |
| 1788058275 | 18.89° C | - | 1019.5 hPa | 0 mm | - | - | - |
| 1788057975 | 18.33° C | - | 1021.7 hPa | 0 mm | - | - | - |
| 1788057684 | 18.89° C | - | 1017.5 hPa | 0 mm | - | - | - |
| 1788057374 | 18.89° C | - | 1019.8 hPa | 0 mm | - | - | - |
| 1788057073 | 20° C | - | 1021.2 hPa | 0 mm | - | - | - |
* Rain since midnight (hover to see other rain measurements)
** Current wind speed in m/s (hover to see current wind gust speed)